Wetterdaten: Freitag, 07.01.2011
Datum Zeit Temp. A. Feuchte A. Luftdruck Regen Wind Richtung Richtung Sonnenschein UV Solar Windben
07.01.2011 00:00 7,7 C 94 % 996,7 hPa 0,0 mm 8,0 km/h (2 Bft) SW 225 0 min 0 UV-I 0 W/m 25,7 km/h (4 Bft)
07.01.2011 00:10 7,8 C 94 % 996,9 hPa 0,0 mm 9,7 km/h (2 Bft) W-SW 247 0 min 0 UV-I 0 W/m 25,7 km/h (4 Bft)
07.01.2011 00:20 7,8 C 94 % 997,6 hPa 0,3 mm 8,0 km/h (2 Bft) W-SW 247 0 min 0 UV-I 0 W/m 22,5 km/h (4 Bft)
07.01.2011 00:30 7,7 C 94 % 997,9 hPa 0,0 mm 9,7 km/h (2 Bft) W 270 0 min 0 UV-I 0 W/m 30,6 km/h (5 Bft)
07.01.2011 00:40 7,7 C 94 % 998,3 hPa 0,0 mm 9,7 km/h (2 Bft) W-SW 247 0 min 0 UV-I 0 W/m 29,0 km/h (5 Bft)
07.01.2011 00:50 7,6 C 94 % 998,7 hPa 0,0 mm 11,3 km/h (2 Bft) W-SW 247 0 min 0 UV-I 0 W/m 25,7 km/h (4 Bft)
07.01.2011 01:00 7,5 C 94 % 999,0 hPa 0,0 mm 9,7 km/h (2 Bft) SW 225 0 min 0 UV-I 0 W/m 22,5 km/h (4 Bft)
07.01.2011 01:10 7,4 C 93 % 999,3 hPa 0,0 mm 8,0 km/h (2 Bft) W 270 0 min 0 UV-I 0 W/m 25,7 km/h (4 Bft)
07.01.2011 01:20 7,2 C 93 % 999,8 hPa 0,0 mm 8,0 km/h (2 Bft) W 270 0 min 0 UV-I 0 W/m 22,5 km/h (4 Bft)
07.01.2011 01:30 7,0 C 93 % 1000,2 hPa 0,0 mm 6,4 km/h (2 Bft) W 270 0 min 0 UV-I 0 W/m 19,3 km/h (3 Bft)
07.01.2011 01:40 6,8 C 93 % 1000,9 hPa 0,0 mm 6,4 km/h (2 Bft) W 270 0 min 0 UV-I 0 W/m 22,5 km/h (4 Bft)
07.01.2011 01:50 6,5 C 93 % 1001,2 hPa 0,0 mm 11,3 km/h (2 Bft) W 270 0 min 0 UV-I 0 W/m 20,9 km/h (4 Bft)
07.01.2011 02:00 6,1 C 93 % 1001,7 hPa 0,0 mm 8,0 km/h (2 Bft) W 270 0 min 0 UV-I 0 W/m 24,1 km/h (4 Bft)
07.01.2011 02:10 5,8 C 93 % 1002,0 hPa 0,0 mm 6,4 km/h (2 Bft) W 270 0 min 0 UV-I 0 W/m 16,1 km/h (3 Bft)
07.01.2011 02:20 5,6 C 92 % 1002,2 hPa 0,0 mm 6,4 km/h (2 Bft) W 270 0 min 0 UV-I 0 W/m 17,7 km/h (3 Bft)
07.01.2011 02:30 5,3 C 92 % 1002,7 hPa 0,0 mm 6,4 km/h (2 Bft) W 270 0 min 0 UV-I 0 W/m 16,1 km/h (3 Bft)
07.01.2011 02:40 5,1 C 92 % 1003,0 hPa 0,0 mm 4,8 km/h (1 Bft) W 270 0 min 0 UV-I 0 W/m 14,5 km/h (3 Bft)
07.01.2011 02:50 4,9 C 92 % 1003,1 hPa 0,0 mm 3,2 km/h (1 Bft) W 270 0 min 0 UV-I 0 W/m 14,5 km/h (3 Bft)
07.01.2011 03:00 4,7 C 92 % 1003,5 hPa 0,0 mm 4,8 km/h (1 Bft) W 270 0 min 0 UV-I 0 W/m 9,7 km/h (2 Bft)
07.01.2011 03:10 4,5 C 92 % 1003,9 hPa 0,0 mm 3,2 km/h (1 Bft) W 270 0 min 0 UV-I 0 W/m 12,9 km/h (3 Bft)
07.01.2011 03:20 4,3 C 92 % 1004,3 hPa 0,0 mm 1,6 km/h (1 Bft) W-NW 292 0 min 0 UV-I 0 W/m 11,3 km/h (2 Bft)
07.01.2011 03:30 4,2 C 92 % 1004,5 hPa 0,0 mm 3,2 km/h (1 Bft) W 270 0 min 0 UV-I 0 W/m 11,3 km/h (2 Bft)
07.01.2011 03:40 4,0 C 92 % 1004,4 hPa 0,0 mm 3,2 km/h (1 Bft) W 270 0 min 0 UV-I 0 W/m 9,7 km/h (2 Bft)
07.01.2011 03:50 3,8 C 92 % 1004,7 hPa 0,0 mm 3,2 km/h (1 Bft) W-NW 292 0 min 0 UV-I 0 W/m 11,3 km/h (2 Bft)
07.01.2011 04:00 3,7 C 92 % 1005,1 hPa 0,0 mm 1,6 km/h (1 Bft) W-NW 292 0 min 0 UV-I 0 W/m 4,8 km/h (1 Bft)
07.01.2011 04:10 3,6 C 92 % 1005,3 hPa 0,0 mm 1,6 km/h (1 Bft) W-NW 292 0 min 0 UV-I 0 W/m 4,8 km/h (1 Bft)
07.01.2011 04:20 3,5 C 92 % 1005,4 hPa 0,0 mm 0,0 km/h (0 Bft) W-NW 292 0 min 0 UV-I 0 W/m 6,4 km/h (2 Bft)
07.01.2011 04:30 3,5 C 92 % 1005,6 hPa 0,0 mm 0,0 km/h (0 Bft) W-NW 292 0 min 0 UV-I 0 W/m 4,8 km/h (1 Bft)
07.01.2011 04:40 3,4 C 93 % 1005,8 hPa 0,0 mm 0,0 km/h (0 Bft) W-NW 292 0 min 0 UV-I 0 W/m 3,2 km/h (1 Bft)
07.01.2011 04:50 3,4 C 93 % 1006,0 hPa 0,0 mm 0,0 km/h (0 Bft) W 270 0 min 0 UV-I 0 W/m 3,2 km/h (1 Bft)
07.01.2011 05:00 3,3 C 92 % 1006,1 hPa 0,0 mm 0,0 km/h (0 Bft) W-SW 247 0 min 0 UV-I 0 W/m 4,8 km/h (1 Bft)
07.01.2011 05:10 3,3 C 92 % 1006,1 hPa 0,0 mm 0,0 km/h (0 Bft) W-SW 247 0 min 0 UV-I 0 W/m 3,2 km/h (1 Bft)
07.01.2011 05:20 3,2 C 92 % 1006,4 hPa 0,0 mm 0,0 km/h (0 Bft) W-SW 247 0 min 0 UV-I 0 W/m 4,8 km/h (1 Bft)
07.01.2011 05:30 3,2 C 93 % 1006,4 hPa 0,0 mm 0,0 km/h (0 Bft) N 0 0 min 0 UV-I 0 W/m 0,0 km/h (0 Bft)
07.01.2011 05:40 3,2 C 93 % 1006,5 hPa 0,0 mm 0,0 km/h (0 Bft) W-SW 247 0 min 0 UV-I 0 W/m 1,6 km/h (1 Bft)
07.01.2011 05:50 3,1 C 93 % 1006,7 hPa 0,0 mm 0,0 km/h (0 Bft) W-SW 247 0 min 0 UV-I 0 W/m 1,6 km/h (1 Bft)
07.01.2011 06:00 3,1 C 93 % 1006,8 hPa 0,0 mm 0,0 km/h (0 Bft) W-SW 247 0 min 0 UV-I 0 W/m 1,6 km/h (1 Bft)
07.01.2011 06:10 3,1 C 93 % 1007,0 hPa 0,0 mm 0,0 km/h (0 Bft) N 0 0 min 0 UV-I 0 W/m 0,0 km/h (0 Bft)
07.01.2011 06:20 3,1 C 93 % 1007,0 hPa 0,0 mm 0,0 km/h (0 Bft) N 0 0 min 0 UV-I 0 W/m 0,0 km/h (0 Bft)
07.01.2011 06:30 3,1 C 93 % 1007,1 hPa 0,0 mm 0,0 km/h (0 Bft) N 0 0 min 0 UV-I 0 W/m 0,0 km/h (0 Bft)
07.01.2011 06:40 3,0 C 93 % 1007,1 hPa 0,0 mm 0,0 km/h (0 Bft) N 0 0 min 0 UV-I 0 W/m 0,0 km/h (0 Bft)
07.01.2011 06:50 3,0 C 93 % 1007,3 hPa 0,0 mm 0,0 km/h (0 Bft) W-SW 247 0 min 0 UV-I 0 W/m 1,6 km/h (1 Bft)
07.01.2011 07:00 2,9 C 93 % 1007,2 hPa 0,0 mm 0,0 km/h (0 Bft) N 0 0 min 0 UV-I 0 W/m 0,0 km/h (0 Bft)
07.01.2011 07:10 2,9 C 93 % 1007,2 hPa 0,0 mm 0,0 km/h (0 Bft) N 0 0 min 0 UV-I 0 W/m 0,0 km/h (0 Bft)
07.01.2011 07:20 2,9 C 93 % 1007,1 hPa 0,0 mm 0,0 km/h (0 Bft) N 0 0 min 0 UV-I 0 W/m 0,0 km/h (0 Bft)
07.01.2011 07:30 2,9 C 93 % 1007,4 hPa 0,0 mm 0,0 km/h (0 Bft) N 0 0 min 0 UV-I 0 W/m 0,0 km/h (0 Bft)
07.01.2011 07:40 2,9 C 93 % 1007,4 hPa 0,0 mm 0,0 km/h (0 Bft) N 0 0 min 0 UV-I 0 W/m 0,0 km/h (0 Bft)
07.01.2011 07:50 2,9 C 93 % 1007,5 hPa 0,0 mm 0,0 km/h (0 Bft) N 0 0 min 0 UV-I 0 W/m 0,0 km/h (0 Bft)
07.01.2011 08:00 2,8 C 93 % 1007,9 hPa 0,0 mm 0,0 km/h (0 Bft) W-SW 256 0 min 0 UV-I 0 W/m 0,0 km/h (0 Bft)
07.01.2011 08:10 2,8 C 93 % 1008,1 hPa 0,0 mm 0,0 km/h (0 Bft) W-SW 247 0 min 0 UV-I 0 W/m 1,6 km/h (1 Bft)
07.01.2011 08:20 2,8 C 93 % 1008,0 hPa 0,0 mm 0,0 km/h (0 Bft) W-SW 247 0 min 0 UV-I 0 W/m 1,6 km/h (1 Bft)
07.01.2011 08:30 2,8 C 93 % 1008,1 hPa 0,0 mm 0,0 km/h (0 Bft) W-SW 247 0 min 0 UV-I 0 W/m 1,6 km/h (1 Bft)
07.01.2011 08:40 2,8 C 93 % 1008,0 hPa 0,0 mm 0,0 km/h (0 Bft) S-SO 157 0 min 0 UV-I 0 W/m 3,2 km/h (1 Bft)
07.01.2011 08:50 2,8 C 93 % 1008,0 hPa 0,0 mm 0,0 km/h (0 Bft) S-SO 157 0 min 0 UV-I 7 W/m 3,2 km/h (1 Bft)
07.01.2011 09:00 2,8 C 93 % 1008,1 hPa 0,0 mm 0,0 km/h (0 Bft) S-SO 157 0 min 0 UV-I 12 W/m 3,2 km/h (1 Bft)
07.01.2011 09:10 2,8 C 93 % 1007,9 hPa 0,0 mm 0,0 km/h (0 Bft) S-SO 157 0 min 0 UV-I 12 W/m 1,6 km/h (1 Bft)
07.01.2011 09:20 2,8 C 93 % 1007,9 hPa 0,0 mm 1,6 km/h (1 Bft) SO 135 0 min 0 UV-I 14 W/m 6,4 km/h (2 Bft)
07.01.2011 09:30 2,9 C 93 % 1007,9 hPa 0,0 mm 0,0 km/h (0 Bft) O 90 0 min 0 UV-I 21 W/m 3,2 km/h (1 Bft)
07.01.2011 09:40 2,9 C 93 % 1007,6 hPa 0,0 mm 0,0 km/h (0 Bft) O 90 0 min 0 UV-I 40 W/m 4,8 km/h (1 Bft)
07.01.2011 09:50 2,9 C 93 % 1007,8 hPa 0,0 mm 0,0 km/h (0 Bft) O 90 0 min 0 UV-I 42 W/m 3,2 km/h (1 Bft)
07.01.2011 10:00 3,0 C 93 % 1007,8 hPa 0,0 mm 0,0 km/h (0 Bft) O 90 0 min 0 UV-I 33 W/m 3,2 km/h (1 Bft)
07.01.2011 10:10 3,0 C 93 % 1007,6 hPa 0,0 mm 1,6 km/h (1 Bft) O 90 0 min 0 UV-I 40 W/m 4,8 km/h (1 Bft)
07.01.2011 10:20 3,1 C 93 % 1007,7 hPa 0,0 mm 1,6 km/h (1 Bft) O 90 0 min 0 UV-I 42 W/m 4,8 km/h (1 Bft)
07.01.2011 10:30 3,1 C 93 % 1007,6 hPa 0,0 mm 1,6 km/h (1 Bft) O 90 0 min 0 UV-I 35 W/m 6,4 km/h (2 Bft)
07.01.2011 10:40 3,1 C 93 % 1007,6 hPa 0,0 mm 3,2 km/h (1 Bft) O 90 0 min 0 UV-I 37 W/m 8,0 km/h (2 Bft)
07.01.2011 10:50 3,2 C 93 % 1007,6 hPa 0,0 mm 3,2 km/h (1 Bft) O 90 0 min 0 UV-I 35 W/m 6,4 km/h (2 Bft)
07.01.2011 11:00 3,3 C 94 % 1007,4 hPa 0,0 mm 4,8 km/h (1 Bft) O 90 0 min 0 UV-I 46 W/m 9,7 km/h (2 Bft)
07.01.2011 11:10 3,4 C 94 % 1007,3 hPa 0,3 mm 4,8 km/h (1 Bft) O 90 0 min 0 UV-I 46 W/m 12,9 km/h (3 Bft)
07.01.2011 11:20 3,5 C 94 % 1007,0 hPa 0,3 mm 3,2 km/h (1 Bft) O-SO 112 0 min 0 UV-I 44 W/m 9,7 km/h (2 Bft)
07.01.2011 11:30 3,6 C 94 % 1006,8 hPa 0,0 mm 3,2 km/h (1 Bft) O 90 0 min 0 UV-I 54 W/m 9,7 km/h (2 Bft)
07.01.2011 11:40 3,7 C 94 % 1006,7 hPa 0,0 mm 3,2 km/h (1 Bft) O 90 0 min 0 UV-I 53 W/m 8,0 km/h (2 Bft)
07.01.2011 11:50 3,8 C 94 % 1006,7 hPa 0,0 mm 1,6 km/h (1 Bft) O 90 0 min 0 UV-I 62 W/m 8,0 km/h (2 Bft)
07.01.2011 12:00 3,9 C 94 % 1006,5 hPa 0,0 mm 1,6 km/h (1 Bft) O 90 0 min 0 UV-I 44 W/m 9,7 km/h (2 Bft)
07.01.2011 12:10 4,0 C 94 % 1006,5 hPa 0,0 mm 3,2 km/h (1 Bft) O 90 0 min 0 UV-I 35 W/m 6,4 km/h (2 Bft)
07.01.2011 12:20 4,1 C 94 % 1006,5 hPa 0,0 mm 1,6 km/h (1 Bft) O 90 0 min 0 UV-I 37 W/m 6,4 km/h (2 Bft)
07.01.2011 12:30 4,1 C 94 % 1006,3 hPa 0,0 mm 1,6 km/h (1 Bft) O 90 0 min 0 UV-I 42 W/m 4,8 km/h (1 Bft)
07.01.2011 12:40 4,3 C 94 % 1006,0 hPa 0,0 mm 3,2 km/h (1 Bft) O-SO 112 0 min 0 UV-I 77 W/m 8,0 km/h (2 Bft)
07.01.2011 12:50 4,4 C 94 % 1005,9 hPa 0,0 mm 3,2 km/h (1 Bft) O-SO 112 0 min 0 UV-I 76 W/m 9,7 km/h (2 Bft)
07.01.2011 13:00 4,7 C 94 % 1005,7 hPa 0,0 mm 3,2 km/h (1 Bft) O-SO 112 0 min 0 UV-I 49 W/m 11,3 km/h (2 Bft)
07.01.2011 13:10 4,8 C 94 % 1005,8 hPa 0,0 mm 1,6 km/h (1 Bft) O 90 0 min 0 UV-I 39 W/m 6,4 km/h (2 Bft)
07.01.2011 13:20 4,9 C 94 % 1005,7 hPa 0,0 mm 1,6 km/h (1 Bft) O-SO 112 0 min 0 UV-I 35 W/m 9,7 km/h (2 Bft)
07.01.2011 13:30 5,0 C 94 % 1005,6 hPa 0,0 mm 1,6 km/h (1 Bft) O-SO 112 0 min 0 UV-I 30 W/m 4,8 km/h (1 Bft)
07.01.2011 13:40 5,0 C 94 % 1005,4 hPa 0,0 mm 1,6 km/h (1 Bft) O-SO 112 0 min 0 UV-I 30 W/m 3,2 km/h (1 Bft)
07.01.2011 13:50 5,1 C 94 % 1005,4 hPa 0,0 mm 1,6 km/h (1 Bft) O-SO 112 0 min 0 UV-I 30 W/m 8,0 km/h (2 Bft)
07.01.2011 14:00 5,2 C 94 % 1005,5 hPa 0,0 mm 1,6 km/h (1 Bft) SO 135 0 min 0 UV-I 49 W/m 6,4 km/h (2 Bft)
07.01.2011 14:10 5,4 C 94 % 1005,6 hPa 0,0 mm 1,6 km/h (1 Bft) O-SO 112 0 min 0 UV-I 51 W/m 8,0 km/h (2 Bft)
07.01.2011 14:20 5,6 C 95 % 1005,5 hPa 0,0 mm 1,6 km/h (1 Bft) S-SO 157 0 min 0 UV-I 51 W/m 4,8 km/h (1 Bft)
07.01.2011 14:30 5,7 C 94 % 1005,5 hPa 0,0 mm 1,6 km/h (1 Bft) SO 135 0 min 0 UV-I 47 W/m 6,4 km/h (2 Bft)
07.01.2011 14:40 5,8 C 94 % 1005,4 hPa 0,0 mm 1,6 km/h (1 Bft) SO 135 0 min 0 UV-I 25 W/m 11,3 km/h (2 Bft)
07.01.2011 14:50 5,9 C 95 % 1005,5 hPa 0,0 mm 1,6 km/h (1 Bft) SO 135 0 min 0 UV-I 26 W/m 6,4 km/h (2 Bft)
07.01.2011 15:00 6,0 C 95 % 1005,4 hPa 0,0 mm 1,6 km/h (1 Bft) SO 135 0 min 0 UV-I 32 W/m 6,4 km/h (2 Bft)
07.01.2011 15:10 6,0 C 95 % 1005,5 hPa 0,0 mm 0,0 km/h (0 Bft) O-SO 112 0 min 0 UV-I 32 W/m 6,4 km/h (2 Bft)
07.01.2011 15:20 6,1 C 94 % 1005,4 hPa 0,0 mm 0,0 km/h (0 Bft) SO 135 0 min 0 UV-I 23 W/m 4,8 km/h (1 Bft)
07.01.2011 15:30 6,1 C 94 % 1005,2 hPa 0,0 mm 0,0 km/h (0 Bft) SO 135 0 min 0 UV-I 21 W/m 6,4 km/h (2 Bft)
07.01.2011 15:40 6,2 C 94 % 1005,1 hPa 0,0 mm 0,0 km/h (0 Bft) SO 135 0 min 0 UV-I 18 W/m 6,4 km/h (2 Bft)
07.01.2011 15:50 6,3 C 95 % 1005,2 hPa 0,0 mm 1,6 km/h (1 Bft) SO 135 0 min 0 UV-I 11 W/m 8,0 km/h (2 Bft)
07.01.2011 16:00 6,5 C 95 % 1005,2 hPa 0,0 mm 1,8 km/h (1 Bft) O 91 0 min 0 UV-I 7 W/m 8,0 km/h (2 Bft)
07.01.2011 16:10 6,6 C 95 % 1005,3 hPa 0,0 mm 1,6 km/h (1 Bft) O 90 0 min 0 UV-I 7 W/m 11,3 km/h (2 Bft)
07.01.2011 16:20 6,7 C 95 % 1005,4 hPa 0,0 mm 1,6 km/h (1 Bft) SO 135 0 min 0 UV-I 0 W/m 8,0 km/h (2 Bft)
07.01.2011 16:30 6,7 C 95 % 1005,3 hPa 0,0 mm 3,2 km/h (1 Bft) SO 135 0 min 0 UV-I 0 W/m 14,5 km/h (3 Bft)
07.01.2011 16:40 6,7 C 95 % 1005,2 hPa 0,3 mm 1,6 km/h (1 Bft) SO 135 0 min 0 UV-I 0 W/m 11,3 km/h (2 Bft)
07.01.2011 16:50 6,8 C 95 % 1005,1 hPa 0,0 mm 3,2 km/h (1 Bft) SO 135 0 min 0 UV-I 0 W/m 14,5 km/h (3 Bft)
07.01.2011 17:00 6,8 C 95 % 1005,2 hPa 0,0 mm 3,2 km/h (1 Bft) S-SO 157 0 min 0 UV-I 0 W/m 9,7 km/h (2 Bft)
07.01.2011 17:10 6,8 C 95 % 1005,0 hPa 0,3 mm 3,2 km/h (1 Bft) SO 135 0 min 0 UV-I 0 W/m 9,7 km/h (2 Bft)
07.01.2011 17:20 6,8 C 95 % 1005,0 hPa 0,0 mm 1,6 km/h (1 Bft) SO 135 0 min 0 UV-I 0 W/m 9,7 km/h (2 Bft)
07.01.2011 17:30 6,8 C 94 % 1005,1 hPa 0,3 mm 1,6 km/h (1 Bft) S-SW 202 0 min 0 UV-I 0 W/m 6,4 km/h (2 Bft)
07.01.2011 17:40 6,8 C 94 % 1005,0 hPa 0,5 mm 0,0 km/h (0 Bft) S 180 0 min 0 UV-I 0 W/m 8,0 km/h (2 Bft)
07.01.2011 17:50 6,7 C 94 % 1004,9 hPa 0,3 mm 1,6 km/h (1 Bft) S 180 0 min 0 UV-I 0 W/m 11,3 km/h (2 Bft)
07.01.2011 18:00 6,7 C 94 % 1005,0 hPa 0,3 mm 3,2 km/h (1 Bft) S-SO 157 0 min 0 UV-I 0 W/m 9,7 km/h (2 Bft)
07.01.2011 18:10 6,7 C 95 % 1004,9 hPa 0,3 mm 1,6 km/h (1 Bft) S-SO 157 0 min 0 UV-I 0 W/m 11,3 km/h (2 Bft)
07.01.2011 18:20 6,7 C 94 % 1004,6 hPa 0,5 mm 1,6 km/h (1 Bft) S-SO 157 0 min 0 UV-I 0 W/m 6,4 km/h (2 Bft)
07.01.2011 18:30 6,7 C 94 % 1004,6 hPa 0,0 mm 1,6 km/h (1 Bft) S-SO 157 0 min 0 UV-I 0 W/m 4,8 km/h (1 Bft)
07.01.2011 18:40 6,7 C 94 % 1004,8 hPa 0,0 mm 1,6 km/h (1 Bft) S-SO 157 0 min 0 UV-I 0 W/m 4,8 km/h (1 Bft)
07.01.2011 18:50 6,7 C 95 % 1004,7 hPa 0,0 mm 1,6 km/h (1 Bft) O-SO 112 0 min 0 UV-I 0 W/m 4,8 km/h (1 Bft)
07.01.2011 19:00 6,7 C 95 % 1004,6 hPa 0,3 mm 1,6 km/h (1 Bft) S-SO 157 0 min 0 UV-I 0 W/m 8,0 km/h (2 Bft)
07.01.2011 19:10 6,7 C 95 % 1004,5 hPa 0,0 mm 1,6 km/h (1 Bft) SO 135 0 min 0 UV-I 0 W/m 4,8 km/h (1 Bft)
07.01.2011 19:20 6,7 C 95 % 1004,4 hPa 0,0 mm 0,0 km/h (0 Bft) O-SO 112 0 min 0 UV-I 0 W/m 4,8 km/h (1 Bft)
07.01.2011 19:30 6,7 C 95 % 1004,5 hPa 0,0 mm 0,0 km/h (0 Bft) O-SO 112 0 min 0 UV-I 0 W/m 3,2 km/h (1 Bft)
07.01.2011 19:40 6,7 C 95 % 1004,4 hPa 0,0 mm 0,0 km/h (0 Bft) O-SO 112 0 min 0 UV-I 0 W/m 1,6 km/h (1 Bft)
07.01.2011 19:50 6,7 C 95 % 1004,4 hPa 0,0 mm 0,0 km/h (0 Bft) S-SW 202 0 min 0 UV-I 0 W/m 3,2 km/h (1 Bft)
07.01.2011 20:00 6,6 C 95 % 1004,6 hPa 0,0 mm 0,0 km/h (0 Bft) S 180 0 min 0 UV-I 0 W/m 3,2 km/h (1 Bft)
07.01.2011 20:10 6,6 C 95 % 1004,6 hPa 0,0 mm 0,0 km/h (0 Bft) S-SW 202 0 min 0 UV-I 0 W/m 1,6 km/h (1 Bft)
07.01.2011 20:20 6,6 C 95 % 1004,6 hPa 0,0 mm 0,0 km/h (0 Bft) S 180 0 min 0 UV-I 0 W/m 3,2 km/h (1 Bft)
07.01.2011 20:30 6,7 C 95 % 1004,6 hPa 0,0 mm 0,0 km/h (0 Bft) S 180 0 min 0 UV-I 0 W/m 1,6 km/h (1 Bft)
07.01.2011 20:40 6,7 C 95 % 1004,7 hPa 0,0 mm 0,1 km/h (0 Bft) S 182 0 min 0 UV-I 0 W/m 1,6 km/h (1 Bft)
07.01.2011 20:50 6,7 C 95 % 1004,8 hPa 0,0 mm 0,0 km/h (0 Bft) S 182 0 min 0 UV-I 0 W/m 1,6 km/h (1 Bft)
07.01.2011 21:00 6,7 C 95 % 1004,9 hPa 0,0 mm 0,3 km/h (0 Bft) S 182 0 min 0 UV-I 0 W/m 3,2 km/h (1 Bft)
07.01.2011 21:10 6,8 C 95 % 1004,9 hPa 0,0 mm 0,5 km/h (0 Bft) S 177 0 min 0 UV-I 0 W/m 4,8 km/h (1 Bft)
07.01.2011 21:20 6,9 C 95 % 1004,9 hPa 0,0 mm 1,0 km/h (0 Bft) S-SW 202 0 min 0 UV-I 0 W/m 6,4 km/h (2 Bft)
07.01.2011 21:30 7,2 C 95 % 1004,9 hPa 0,0 mm 0,5 km/h (0 Bft) S-SW 196 0 min 0 UV-I 0 W/m 3,2 km/h (1 Bft)
07.01.2011 21:40 7,3 C 95 % 1004,9 hPa 0,0 mm 0,8 km/h (0 Bft) S-SW 192 0 min 0 UV-I 0 W/m 6,4 km/h (2 Bft)
07.01.2011 21:50 7,4 C 95 % 1005,0 hPa 0,0 mm 0,4 km/h (0 Bft) S-SW 196 0 min 0 UV-I 0 W/m 3,2 km/h (1 Bft)
07.01.2011 22:00 7,4 C 95 % 1005,0 hPa 0,0 mm 0,1 km/h (0 Bft) S-SW 196 0 min 0 UV-I 0 W/m 3,2 km/h (1 Bft)
07.01.2011 22:10 7,4 C 95 % 1005,2 hPa 0,0 mm 0,3 km/h (0 Bft) S-SW 198 0 min 0 UV-I 0 W/m 3,2 km/h (1 Bft)
07.01.2011 22:20 7,4 C 95 % 1005,2 hPa 0,0 mm 0,2 km/h (0 Bft) S-SW 198 0 min 0 UV-I 0 W/m 4,8 km/h (1 Bft)
07.01.2011 22:30 7,3 C 95 % 1005,2 hPa 0,0 mm 0,9 km/h (0 Bft) S-SW 206 0 min 0 UV-I 0 W/m 6,4 km/h (2 Bft)
07.01.2011 22:40 7,3 C 95 % 1005,3 hPa 0,0 mm 0,4 km/h (0 Bft) S 179 0 min 0 UV-I 0 W/m 4,8 km/h (1 Bft)
07.01.2011 22:50 7,3 C 95 % 1005,4 hPa 0,0 mm 0,5 km/h (0 Bft) S 180 0 min 0 UV-I 0 W/m 3,2 km/h (1 Bft)
07.01.2011 23:00 7,3 C 95 % 1005,4 hPa 0,0 mm 1,2 km/h (1 Bft) S 186 0 min 0 UV-I 0 W/m 8,0 km/h (2 Bft)
07.01.2011 23:10 7,3 C 95 % 1005,4 hPa 0,0 mm 1,5 km/h (1 Bft) S-SW 193 0 min 0 UV-I 0 W/m 8,0 km/h (2 Bft)
07.01.2011 23:20 7,3 C 95 % 1005,4 hPa 0,0 mm 1,0 km/h (0 Bft) S-SW 198 0 min 0 UV-I 0 W/m 6,4 km/h (2 Bft)
07.01.2011 23:30 7,3 C 95 % 1005,5 hPa 0,0 mm 0,8 km/h (0 Bft) S 175 0 min 0 UV-I 0 W/m 8,0 km/h (2 Bft)
07.01.2011 23:40 7,3 C 95 % 1005,6 hPa 0,0 mm 1,0 km/h (0 Bft) S 185 0 min 0 UV-I 0 W/m 9,7 km/h (2 Bft)
07.01.2011 23:50 7,3 C 95 % 1005,6 hPa 0,0 mm 1,2 km/h (1 Bft) S-SW 201 0 min 0 UV-I 0 W/m 6,4 km/h (2 Bft)
_ Min-Zeit 08:30 02:20 00:00 - 04:20 - - - - - 05:30
Minimum _ 2,7 C 92 % 996,7 hPa - 0,0 km/h (0 Bft) - - - - - 0,0 km/h (0 Bft)
_ Max-Zeit 00:10 14:20 08:10 17:40 00:50 - - 00:00 00:00 12:40 00:30
Maximum _ 7,8 C 95 % 1008,1 hPa 0,5 mm 11,3 km/h
W-SW (2 Bft)
- - 0 min 0 UV-I 77 W/m 30,6 km/h
SW (5 Bft)
Durchschnitt _ 5,2 C 94 % 1005,2 hPa #3,6 mm 2,0 km/h (1 Bft) O - #0 min. 0 UV-I 36 W/m 7,7 km/h (2 Bft)